Wind_Speed
145 145 146 147 147 147 147 147 147 147 146 146 146 145 145 144 145 145 145 145 145 146 147 148 149 149 149 149 150 150 150 150 148 147 145 143 141 139 137 134 131 128 126 126 126 123 122 124 127 129 130 130 130 131 131 132 132 132 132 133 134 135 135
145 145 145 145 145 144 144 143 143 142 142 142 142 142 142 142 143 143 144 144 145 145 146 147 148 148 148 147 147 147 146 145 143 141 138 136 134 132 129 127 124 121 118 118 118 117 115 116 119 120 121 121 122 122 123 124 125 126 126 126 126 127 128
140 140 140 140 139 139 139 138 138 138 138 139 139 139 140 141 142 143 144 144 144 145 146 146 147 146 145 143 142 142 141 139 137 134 132 129 127 125 123 121 119 116 113 112 112 111 110 111 113 113 113 114 115 116 117 118 120 121 121 120 120 121 122
134 134 134 135 135 135 135 135 135 135 136 136 137 138 140 142 143 144 144 143 144 144 144 144 143 142 140 139 137 136 135 133 131 128 126 123 122 120 119 118 116 113 110 107 107 107 107 107 109 109 108 108 109 110 112 113 115 116 116 115 115 116 117
130 131 131 131 132 132 132 132 132 133 135 137 138 139 141 142 143 143 143 142 141 141 140 139 138 136 135 133 131 130 128 127 125 123 121 118 117 115 114 114 112 110 107 104 102 102 103 104 104 105 104 104 104 106 107 109 110 111 112 111 110 111 112
128 128 128 129 129 129 130 131 132 134 136 138 139 140 141 142 142 141 139 138 136 135 134 134 132 131 129 127 125 123 122 121 119 118 116 113 112 111 109 109 108 106 103 101 98 97 98 99 100 100 100 100 100 102 103 105 106 108 108 108 108 108 109
126 127 127 127 128 129 130 132 134 136 138 139 139 139 139 139 137 136 134 133 131 130 129 128 126 125 123 121 119 118 116 115 114 112 110 108 106 105 104 104 103 102 99 97 95 93 93 94 95 95 95 96 97 98 99 101 103 105 105 105 104 105 106
126 126 127 128 129 130 132 134 135 136 137 137 136 135 134 133 132 131 129 128 126 125 123 121 120 118 117 116 114 112 110 109 107 106 105 103 101 100 99 99 99 98 96 94 91 90 89 89 89 90 91 91 92 94 95 96 98 101 102 102 101 101 102
126 127 128 129 131 132 133 134 133 133 133 132 131 130 129 129 128 125 123 121 120 118 117 115 114 113 112 110 108 107 105 103 102 100 99 98 97 95 94 94 95 94 92 91 89 87 85 85 85 85 86 87 88 89 91 92 93 96 98 100 99 98 98
127 128 129 130 131 132 131 131 129 129 128 128 127 126 125 124 122 119 117 115 113 112 111 110 109 108 107 105 103 102 100 99 98 96 95 94 92 91 90 89 90 91 89 88 86 85 82 81 82 82 82 83 84 85 87 89 90 91 93 95 96 96 96
127 128 128 129 129 129 128 126 125 125 125 124 122 120 118 117 115 113 111 109 108 107 106 104 103 102 101 100 99 98 97 96 95 93 91 90 88 87 85 85 85 86 86 85 84 83 80 79 79 79 79 79 80 82 84 85 87 88 89 90 91 93 95
126 126 126 126 126 125 125 124 123 122 121 119 116 114 112 111 110 108 106 104 102 101 100 98 97 97 97 96 95 93 93 93 93 91 89 87 85 84 83 81 80 81 82 82 81 80 79 77 76 77 77 77 77 79 80 82 84 84 85 86 87 89 92
124 124 124 123 123 123 123 121 118 116 114 112 110 108 107 106 105 103 101 98 97 96 94 93 92 92 93 92 91 89 88 89 89 89 88 86 84 82 81 79 77 77 77 77 77 77 77 75 74 74 75 76 75 76 77 79 81 82 82 82 84 86 88
122 122 122 121 121 120 118 115 112 110 108 106 105 104 103 102 100 98 95 93 92 92 91 89 88 87 88 88 87 84 83 83 84 85 85 84 82 81 79 77 75 75 74 73 72 73 73 73 73 72 73 74 74 74 75 76 78 79 79 79 81 83 84
121 121 120 118 116 114 112 109 106 104 103 101 99 98 97 97 95 93 91 90 90 89 88 86 85 84 83 83 82 80 77 77 78 80 81 81 81 80 78 76 74 73 72 70 70 70 69 70 71 70 70 72 72 72 73 74 76 76 76 76 78 79 80
119 118 115 112 110 108 107 105 102 99 98 96 94 92 92 92 91 89 88 88 88 87 86 84 82 81 80 79 78 75 73 71 72 74 76 77 78 79 79 76 74 73 71 69 68 68 67 67 69 69 69 69 70 71 71 72 74 74 73 74 75 76 77
114 112 109 107 104 103 102 100 97 94 92 90 88 87 87 87 86 86 86 86 87 86 85 83 80 78 76 75 73 71 69 68 68 70 72 74 75 77 79 77 76 75 73 69 67 66 65 65 66 67 67 67 68 70 69 70 72 73 72 72 72 73 74
108 106 104 101 99 98 96 95 93 90 87 86 84 82 82 82 81 81 82 84 85 85 84 82 79 77 74 72 71 70 69 68 67 68 70 72 73 76 78 78 78 78 76 72 69 67 65 64 64 65 66 66 66 68 69 68 69 70 71 71 70 70 71
103 101 98 96 94 93 91 89 88 85 83 81 80 79 78 78 77 77 79 81 82 82 82 80 79 78 76 73 71 71 70 69 68 67 69 70 71 73 76 78 78 79 78 76 73 69 66 64 63 63 64 64 64 66 68 68 68 68 68 69 70 69 69
97 96 94 91 89 88 86 84 83 82 79 78 77 77 75 75 75 74 75 76 78 79 79 78 79 79 78 76 73 72 72 71 69 67 67 68 69 70 73 75 77 79 79 78 76 73 69 65 63 62 63 63 63 64 66 67 67 67 66 66 67 68 68
92 91 90 87 85 84 82 79 78 77 76 75 74 74 73 72 73 72 71 71 73 74 74 75 76 77 77 75 73 72 71 70 69 66 65 65 65 66 68 71 73 76 78 79 79 77 73 69 65 64 63 62 61 63 64 66 66 66 66 65 65 65 67
87 86 85 84 82 80 78 76 74 73 73 72 72 71 71 70 70 69 67 66 68 69 69 71 72 73 73 73 72 71 70 69 68 66 65 63 63 63 64 66 68 71 74 76 78 79 77 74 70 67 65 62 61 62 64 65 65 65 66 65 64 64 65
83 82 81 80 79 77 75 73 72 70 70 70 69 69 68 66 65 64 62 62 63 64 65 68 70 70 70 71 71 71 70 70 70 69 67 66 64 62 62 63 65 67 69 71 75 77 77 76 74 71 68 65 63 63 64 65 65 64 65 64 63 63 63
79 77 75 75 75 74 73 72 70 69 69 68 68 67 65 63 63 62 60 60 61 62 63 66 68 69 70 71 72 72 72 73 73 73 72 71 69 66 64 63 63 64 65 68 71 74 75 76 74 72 70 68 65 64 65 65 65 65 64 64 63 62 62
74 72 70 70 70 71 72 72 70 68 68 67 66 65 64 63 63 62 61 61 62 63 65 67 68 69 71 72 73 74 75 76 76 76 76 76 74 71 68 66 64 64 64 66 68 71 74 75 74 71 70 68 66 65 65 66 66 65 64 63 63 63 61
69 67 66 66 66 67 69 71 69 67 66 65 64 64 64 64 64 64 63 63 64 65 67 68 70 71 73 74 75 76 76 77 77 78 78 78 77 74 71 69 66 65 65 66 68 70 72 73 73 70 68 67 66 65 64 65 66 67 65 63 63 62 61
64 62 61 63 63 64 67 69 67 65 63 63 63 64 64 64 64 64 64 65 65 67 68 70 72 73 75 76 78 78 79 79 79 78 79 79 78 76 74 72 69 67 66 67 69 70 71 72 72 70 67 66 65 64 63 63 66 67 65 63 62 62 60
61 59 58 59 61 62 64 66 65 63 62 62 62 62 62 63 63 63 63 64 65 67 69 71 72 74 75 76 77 79 80 81 81 81 81 80 79 78 76 74 72 70 69 69 69 70 70 71 71 70 68 65 65 64 62 62 64 66 65 64 62 61 59
58 57 56 58 59 59 59 61 61 61 61 60 60 60 60 61 61 62 62 64 65 67 69 70 71 73 73 73 74 75 77 79 80 80 81 81 80 78 77 75 73 72 71 70 70 70 70 70 70 70 69 66 65 64 62 61 62 63 64 64 62 60 58
55 55 55 56 57 58 56 55 55 56 56 56 57 59 60 62 63 63 63 64 65 67 68 69 70 71 71 71 72 73 74 76 77 78 78 79 78 77 76 75 73 72 71 71 70 69 69 69 69 70 69 67 65 64 62 61 60 61 62 62 62 60 58
52 53 53 53 53 54 54 52 51 50 51 53 55 58 60 63 64 64 64 64 65 66 67 68 69 70 71 71 71 72 73 74 75 75 75 76 76 75 74 73 72 71 71 71 70 69 68 67 68 68 68 67 66 65 63 60 59 58 59 60 60 59 57
51 51 50 49 48 48 49 49 49 49 50 52 55 57 60 62 63 63 63 64 65 66 67 68 70 71 71 72 71 72 73 74 74 74 73 73 73 72 72 71 71 70 70 70 69 68 67 67 66 67 67 66 65 64 62 60 57 56 56 57 58 57 56
48 47 47 46 46 45 45 46 48 49 51 52 54 56 58 60 62 63 63 64 65 67 68 69 70 71 71 71 71 72 72 73 72 72 72 71 71 70 70 69 69 69 69 69 68 67 67 66 65 65 65 64 63 62 60 58 56 54 54 55 55 55 55
47 45 45 45 45 45 45 47 48 50 52 53 54 56 57 59 62 64 65 66 67 68 69 70 71 71 72 71 71 71 72 72 71 71 70 70 69 69 68 68 68 68 67 67 67 66 65 64 63 62 62 62 61 59 58 56 54 53 52 52 53 53 53
50 48 47 46 46 47 47 49 51 53 54 55 56 57 59 61 63 65 67 68 69 70 70 71 71 72 72 72 71 71 71 71 71 70 69 69 68 68 68 67 67 67 67 66 65 64 63 62 61 59 59 59 58 57 55 54 53 51 51 50 50 51 51
48 48 47 47 47 49 50 51 53 55 56 57 58 59 61 62 63 65 66 68 69 70 71 71 71 71 72 72 71 71 71 70 70 69 69 68 68 67 67 67 67 67 66 65 64 62 61 59 58 57 56 56 56 55 53 52 51 50 49 48 49 49 50
Wind_Direction
280 280 281 281 282 282 283 283 284 284 284 284 285 285 285 285 285 285 284 284 284 284 284 284 285 285 285 285 285 285 285 284 284 284 284 284 284 284 283 283 282 281 280 280 279 277 275 274 273 273 272 272 272 271 271 270 269 268 267 266 265 265 264
280 281 281 282 282 283 283 283 284 284 284 285 285 285 285 285 285 285 285 285 285 285 286 286 286 286 286 286 286 286 286 286 285 285 285 285 285 285 284 284 283 282 281 281 280 278 276 275 274 273 273 272 272 271 270 270 269 268 267 266 265 264 264
281 281 282 282 283 283 283 284 284 285 285 285 286 286 286 285 285 285 286 286 287 287 287 287 287 287 287 287 287 287 287 287 287 287 287 287 287 286 286 285 284 284 283 282 281 280 278 276 275 274 273 273 272 271 270 269 269 268 267 266 265 264 263
282 282 283 283 283 284 284 285 285 286 286 286 286 286 286 286 286 287 287 288 288 288 288 288 288 288 288 288 288 288 288 288 288 288 288 288 288 288 287 287 286 285 284 283 282 281 279 278 276 275 274 273 272 272 271 270 269 268 267 266 265 264 263
283 283 284 284 284 285 285 286 286 287 287 287 287 287 287 287 288 288 289 289 289 289 289 289 289 289 289 289 289 289 289 289 289 289 289 289 288 288 287 286 286 285 284 283 282 280 279 278 277 276 275 274 273 272 271 270 269 269 268 267 265 264 263
284 284 285 285 286 286 287 287 288 288 287 287 287 288 288 289 289 289 289 289 289 289 289 289 289 289 289 289 289 289 289 289 289 289 289 288 288 287 287 286 285 284 284 283 281 280 279 277 276 275 275 274 273 271 271 270 269 269 268 267 266 265 263
285 286 286 287 288 288 288 288 288 288 288 288 288 289 289 289 290 290 290 290 290 290 290 290 290 290 290 289 289 289 289 289 289 289 288 288 288 287 287 286 285 285 284 283 281 280 278 277 276 275 274 273 272 271 270 270 269 269 268 267 266 265 264
287 288 288 289 289 289 288 288 288 288 288 289 289 290 290 290 290 291 291 291 291 290 290 290 290 290 290 289 289 289 289 289 289 289 289 288 288 288 287 287 286 285 285 283 282 280 279 278 276 275 274 273 272 271 270 269 268 268 268 267 266 265 265
289 289 289 289 289 288 288 288 289 289 290 290 291 291 291 291 291 291 291 291 291 291 290 290 290 290 290 290 290 289 289 289 289 289 289 289 289 288 288 288 287 286 285 284 283 281 280 279 277 276 274 273 272 271 270 269 268 267 267 267 267 265 264
289 289 289 289 289 289 289 290 291 291 291 292 292 292 292 292 292 292 291 291 291 291 291 291 291 291 291 291 291 291 291 290 290 289 289 289 289 289 288 288 288 287 286 285 284 283 281 280 278 276 275 274 272 271 270 269 268 267 267 267 267 266 265
290 289 289 289 290 291 291 292 292 293 293 293 293 293 292 292 292 292 292 292 292 292 292 292 292 292 292 292 292 292 292 291 291 290 290 289 289 289 289 288 288 288 288 287 286 284 283 281 280 278 276 274 273 272 270 269 268 268 267 266 266 266 265
290 290 290 291 292 292 293 293 293 294 294 293 293 293 293 292 292 292 292 292 292 292 292 292 292 292 292 292 292 292 293 293 293 292 291 291 291 290 289 289 289 288 288 288 288 286 284 283 281 280 277 275 274 272 271 270 269 268 268 267 266 265 265
291 291 292 293 293 294 294 294 294 294 294 294 294 294 293 293 292 292 292 293 293 292 292 292 292 292 292 292 292 293 294 294 294 294 293 293 292 291 290 290 289 289 289 289 289 288 286 284 282 281 279 277 275 273 272 270 269 269 268 267 266 265 265
293 293 294 294 294 294 294 294 294 294 294 294 294 294 294 293 293 293 293 293 293 292 291 291 291 291 291 292 292 293 294 295 295 295 294 294 293 292 291 290 290 289 289 289 289 289 288 286 284 283 281 278 276 275 273 271 270 269 268 267 267 266 265
294 294 295 295 295 295 295 295 295 295 295 294 294 295 294 294 294 294 294 293 292 292 291 291 291 291 291 292 292 293 294 294 295 295 295 295 294 293 292 291 291 290 290 290 290 289 289 288 287 285 283 280 278 277 275 273 271 270 269 268 267 266 265
295 295 295 296 296 295 295 295 295 295 295 295 295 296 295 295 295 295 294 293 292 292 291 291 291 292 292 292 293 293 294 294 295 296 296 296 296 295 294 293 293 291 291 291 291 291 290 289 288 287 285 283 281 279 277 276 274 271 270 269 268 267 265
296 296 296 296 296 296 295 295 295 296 296 296 296 296 295 295 295 295 295 294 293 293 292 292 293 293 293 293 294 295 295 295 296 297 297 297 298 297 296 296 295 294 292 291 291 290 290 289 289 288 287 285 283 281 279 277 276 274 272 270 269 268 266
296 296 296 296 296 296 296 296 296 297 297 297 296 295 295 295 295 295 295 294 294 294 295 296 296 296 296 296 297 297 297 298 298 299 299 298 298 298 298 298 297 296 295 294 292 291 290 290 289 289 288 286 285 283 281 279 277 276 274 272 270 268 267
296 296 296 296 296 296 297 297 297 297 297 296 295 295 294 294 295 295 295 295 296 297 299 300 301 300 299 299 300 300 300 300 299 299 299 298 298 298 298 298 298 297 297 296 295 293 292 290 290 289 288 287 286 285 283 281 279 277 276 274 272 270 268
296 296 296 297 297 297 297 297 297 297 296 296 295 295 295 295 295 295 296 298 299 300 301 302 302 301 301 301 301 301 300 299 298 298 296 296 296 296 296 297 297 297 297 297 296 295 293 292 290 289 289 288 287 286 284 283 281 278 276 275 273 272 270
297 298 298 298 298 298 297 297 297 296 296 296 296 296 296 296 296 297 298 298 299 299 300 299 299 299 299 300 300 299 298 297 296 295 294 293 293 293 293 294 295 296 297 297 297 297 295 294 292 291 290 289 289 288 286 284 282 281 279 276 274 272 271
299 299 299 299 298 298 297 297 296 296 296 296 296 296 296 296 296 297 298 298 297 297 297 297 297 297 298 298 298 298 298 297 296 295 294 293 292 292 292 293 293 294 295 296 296 296 296 295 294 293 291 291 290 289 287 285 284 282 281 278 276 273 271
299 299 299 299 298 298 297 296 296 296 295 295 295 295 296 296 296 296 296 296 295 296 297 297 297 299 300 301 301 301 301 301 300 299 298 297 295 295 294 294 293 294 294 294 294 294 294 294 294 293 293 292 291 290 288 287 285 284 282 281 278 275 272
300 299 299 299 298 298 297 296 296 296 296 296 297 298 298 298 297 296 297 298 298 299 300 300 301 303 303 303 303 303 303 303 302 302 301 300 299 299 298 297 296 295 294 294 293 293 293 292 292 292 292 292 291 290 289 288 287 285 283 282 280 277 274
300 300 299 298 298 298 297 297 297 298 299 300 301 302 301 301 301 302 303 303 304 304 305 304 305 304 304 303 303 303 302 302 302 302 301 301 301 300 300 299 298 297 296 296 295 294 293 292 291 291 291 291 291 290 289 289 288 286 284 283 282 279 276
299 299 299 298 297 297 297 297 299 300 302 303 304 305 305 305 306 307 307 308 308 307 306 305 304 303 302 301 301 300 300 300 300 300 300 300 301 301 301 300 300 299 299 298 297 296 294 293 292 292 291 291 290 289 289 288 287 286 285 284 282 280 278
299 299 298 297 297 297 297 298 300 303 305 306 306 307 308 309 309 309 309 308 307 305 303 302 301 301 300 300 300 300 300 300 299 299 299 299 300 301 301 301 301 301 300 300 299 298 297 295 294 293 292 291 290 289 288 288 287 286 285 284 282 281 280
299 299 298 297 297 297 298 300 303 305 306 307 308 308 309 308 307 306 304 303 302 301 300 299 299 299 299 299 300 301 301 301 301 301 301 301 301 301 302 302 302 301 301 300 299 299 298 297 295 294 293 292 291 289 289 288 287 286 285 284 282 281 280
299 298 297 296 296 297 298 301 304 306 307 308 308 306 305 302 300 299 298 298 298 297 297 297 298 298 298 299 299 300 300 300 300 301 301 301 302 302 302 302 302 301 300 300 300 299 298 297 296 295 294 293 291 290 289 288 287 285 284 284 282 281 280
298 297 296 296 297 298 300 301 302 304 305 304 303 300 299 297 297 297 297 298 298 298 298 298 298 299 299 299 300 300 299 299 299 300 300 300 301 301 302 302 301 301 300 300 299 299 298 297 296 295 294 293 292 291 290 288 287 285 284 283 282 281 279
295 295 295 296 297 299 301 302 301 300 299 298 297 297 297 297 298 299 300 300 301 301 301 301 301 301 301 301 301 301 301 300 300 300 300 300 301 301 301 301 301 300 300 299 299 299 298 297 296 295 294 293 292 291 290 288 287 285 284 282 281 280 279
295 295 296 297 297 297 298 299 299 298 297 296 297 297 298 299 300 301 302 303 304 304 304 304 304 304 304 304 304 303 302 302 301 301 301 301 302 302 302 301 301 301 300 300 299 299 298 297 296 295 294 293 292 291 290 289 287 285 283 282 281 280 278
296 297 299 299 300 299 298 298 298 298 298 298 298 299 300 301 303 304 306 306 307 307 307 306 306 306 306 306 305 305 304 303 303 303 303 303 303 303 302 302 301 301 301 300 300 299 299 298 296 295 294 293 292 291 290 289 287 285 283 281 280 279 277
302 303 303 303 303 302 301 301 301 301 300 301 302 303 304 306 308 309 310 310 309 309 308 308 308 307 307 307 307 307 306 305 305 305 305 304 304 304 303 303 302 302 301 301 300 300 299 298 297 296 294 293 292 291 290 289 287 285 283 281 279 278 277
308 309 309 308 308 307 306 306 305 305 305 306 308 309 311 312 312 312 311 311 311 311 310 310 309 309 309 309 309 308 308 307 307 307 306 306 305 305 304 304 304 303 303 302 301 301 300 299 298 296 295 294 292 291 290 289 287 285 283 281 279 277 276
309 310 311 311 311 310 309 308 308 309 310 311 312 312 312 312 312 312 312 312 312 312 311 311 311 311 311 311 311 310 309 309 309 308 308 307 307 306 306 305 305 305 304 303 302 301 300 299 298 297 296 294 293 292 291 289 288 286 284 281 279 277 275
Height
10261 10256 10251 10245 10240 10235 10230 10224 10218 10211 10205 10197 10190 10186 10180 10175 10168 10161 10155 10149 10143 10136 10128 10121 10113 10107 10102 10096 10088 10080 10072 10065 10060 10055 10052 10046 10043 10041 10034 10034 10036 10034 10039 10029 10014 10026 10034 10016 10005 10003 9996 9996 9997 9994 9993 9992 9992 9994 9998 10001 10002 10003 10007
10243 10238 10233 10228 10222 10217 10212 10206 10200 10194 10187 10180 10173 10167 10161 10154 10147 10139 10134 10128 10123 10117 10108 10100 10093 10085 10080 10074 10066 10058 10049 10043 10039 10033 10031 10027 10021 10019 10013 10008 10010 10010 10010 10008 9996 9996 10005 9995 9982 9982 9978 9975 9976 9973 9970 9970 9967 9966 9970 9976 9979 9980 9982
10227 10221 10216 10211 10205 10200 10195 10189 10184 10177 10170 10163 10155 10148 10141 10133 10125 10119 10114 10110 10103 10097 10088 10079 10071 10063 10058 10052 10043 10036 10028 10021 10018 10013 10009 10007 10001 9996 9992 9985 9984 9985 9986 9986 9978 9973 9978 9972 9960 9959 9960 9957 9954 9952 9949 9947 9944 9942 9945 9952 9955 9957 9958
10211 10205 10199 10194 10189 10183 10178 10173 10167 10160 10152 10144 10137 10130 10121 10112 10105 10099 10095 10091 10084 10076 10068 10058 10050 10042 10036 10031 10023 10016 10010 10002 9998 9994 9989 9987 9983 9976 9971 9965 9961 9961 9962 9964 9960 9954 9952 9949 9940 9937 9939 9939 9936 9933 9929 9925 9923 9921 9923 9928 9933 9934 9935
10194 10189 10183 10178 10172 10167 10161 10156 10150 10142 10132 10124 10117 10110 10103 10094 10087 10081 10076 10072 10064 10056 10047 10038 10030 10023 10016 10011 10005 9997 9991 9985 9979 9976 9972 9968 9964 9959 9953 9946 9941 9940 9940 9942 9941 9936 9931 9926 9921 9918 9918 9920 9918 9913 9908 9906 9904 9901 9901 9905 9910 9913 9913
10177 10172 10167 10161 10156 10150 10144 10137 10130 10123 10112 10104 10097 10091 10084 10076 10068 10062 10056 10051 10044 10035 10027 10019 10010 10004 9998 9992 9987 9980 9974 9969 9963 9958 9954 9951 9947 9941 9936 9929 9923 9921 9921 9921 9921 9919 9914 9907 9903 9901 9900 9900 9898 9894 9890 9887 9885 9883 9883 9885 9889 9891 9892
10160 10155 10150 10145 10138 10132 10126 10118 10110 10103 10094 10085 10080 10073 10066 10057 10049 10044 10037 10030 10024 10016 10008 10001 9993 9986 9980 9974 9970 9964 9958 9952 9947 9942 9937 9934 9931 9925 9918 9912 9906 9903 9903 9902 9901 9900 9897 9891 9886 9884 9883 9881 9879 9876 9873 9872 9868 9864 9864 9868 9871 9871 9872
10143 10138 10132 10127 10121 10113 10106 10099 10092 10085 10076 10068 10062 10056 10047 10038 10030 10025 10018 10010 10004 9997 9990 9983 9977 9969 9963 9958 9953 9949 9943 9937 9932 9927 9921 9917 9914 9909 9903 9896 9890 9886 9884 9884 9883 9882 9880 9876 9872 9869 9866 9864 9862 9859 9856 9856 9853 9847 9844 9848 9853 9854 9855
10127 10121 10114 10107 10101 10093 10086 10080 10074 10067 10058 10050 10044 10037 10028 10019 10012 10007 10001 9993 9986 9980 9972 9966 9960 9953 9946 9941 9936 9932 9927 9921 9916 9911 9907 9902 9898 9894 9889 9882 9874 9870 9868 9866 9865 9865 9864 9861 9857 9854 9850 9848 9846 9843 9839 9837 9838 9834 9829 9829 9833 9837 9840
10109 10103 10096 10088 10081 10074 10067 10062 10057 10049 10040 10032 10027 10020 10010 10000 9993 9988 9983 9977 9970 9963 9956 9949 9943 9936 9929 9924 9920 9915 9910 9905 9900 9896 9892 9888 9885 9880 9875 9869 9861 9854 9852 9851 9848 9847 9848 9846 9841 9839 9837 9833 9830 9828 9824 9821 9820 9819 9816 9815 9817 9819 9822
10091 10083 10077 10070 10062 10055 10049 10044 10039 10030 10021 10014 10008 10002 9993 9983 9976 9971 9965 9960 9955 9947 9940 9933 9927 9920 9914 9909 9905 9900 9895 9889 9885 9881 9877 9874 9870 9866 9862 9858 9850 9842 9837 9835 9833 9831 9831 9831 9827 9823 9822 9820 9816 9813 9810 9806 9804 9803 9802 9803 9805 9802 9801
10071 10064 10058 10053 10045 10037 10031 10026 10021 10012 10004 9997 9991 9984 9977 9968 9961 9956 9951 9946 9940 9933 9926 9920 9913 9905 9898 9895 9892 9887 9881 9875 9869 9865 9862 9859 9856 9851 9848 9845 9840 9832 9826 9822 9819 9815 9815 9816 9813 9808 9806 9805 9802 9799 9796 9792 9789 9789 9789 9789 9790 9788 9785
10053 10046 10041 10036 10028 10020 10013 10008 10003 9995 9987 9980 9974 9967 9959 9952 9945 9941 9936 9932 9925 9919 9913 9908 9902 9894 9886 9881 9879 9876 9870 9863 9856 9850 9846 9844 9841 9836 9833 9831 9827 9821 9816 9811 9807 9803 9800 9799 9798 9795 9791 9789 9788 9785 9782 9779 9776 9776 9776 9775 9775 9773 9771
10036 10030 10025 10019 10011 10002 9996 9991 9986 9979 9972 9965 9959 9951 9943 9936 9930 9925 9921 9917 9911 9904 9899 9895 9890 9884 9876 9870 9867 9866 9861 9854 9846 9839 9832 9829 9826 9821 9818 9817 9813 9808 9804 9801 9798 9793 9788 9784 9783 9782 9778 9774 9773 9771 9768 9766 9763 9762 9763 9763 9761 9759 9759
10020 10013 10007 10002 9996 9986 9978 9974 9971 9964 9957 9951 9945 9937 9928 9920 9915 9911 9906 9901 9895 9890 9886 9882 9878 9873 9867 9861 9857 9856 9853 9846 9838 9829 9822 9816 9811 9806 9803 9802 9799 9795 9792 9790 9786 9783 9779 9773 9769 9768 9766 9762 9759 9757 9755 9753 9750 9750 9751 9749 9747 9747 9747
10004 9997 9991 9985 9980 9971 9962 9957 9956 9951 9943 9937 9932 9924 9915 9907 9901 9897 9891 9885 9879 9875 9871 9868 9865 9862 9856 9850 9847 9845 9842 9837 9830 9821 9813 9806 9799 9792 9788 9786 9784 9780 9778 9778 9775 9771 9768 9764 9759 9755 9753 9750 9747 9743 9742 9739 9736 9737 9739 9736 9734 9735 9736
9988 9981 9975 9969 9964 9958 9949 9942 9940 9937 9930 9923 9919 9913 9904 9896 9890 9885 9878 9870 9864 9859 9857 9854 9852 9850 9845 9840 9836 9833 9829 9825 9820 9813 9805 9798 9791 9782 9775 9772 9769 9765 9763 9764 9763 9761 9758 9754 9750 9745 9742 9739 9735 9731 9730 9727 9723 9723 9725 9724 9723 9723 9723
9973 9966 9961 9956 9949 9943 9937 9929 9924 9922 9917 9910 9906 9901 9894 9887 9881 9875 9866 9858 9851 9845 9842 9840 9837 9834 9831 9828 9823 9819 9816 9813 9809 9804 9797 9790 9784 9775 9766 9760 9756 9751 9747 9747 9747 9747 9746 9743 9740 9735 9731 9728 9725 9721 9718 9716 9712 9710 9710 9711 9711 9711 9710
9959 9952 9947 9943 9936 9929 9925 9918 9911 9908 9905 9898 9892 9889 9884 9877 9872 9865 9857 9848 9841 9835 9830 9826 9822 9817 9815 9814 9812 9807 9803 9800 9798 9796 9789 9783 9777 9769 9760 9752 9746 9740 9736 9734 9732 9732 9732 9731 9729 9725 9721 9718 9715 9711 9706 9704 9701 9699 9698 9698 9698 9699 9699
9946 9938 9932 9929 9923 9917 9913 9908 9900 9895 9892 9887 9880 9876 9873 9867 9861 9856 9850 9841 9833 9827 9822 9816 9810 9804 9801 9801 9800 9797 9792 9788 9786 9785 9781 9775 9770 9764 9756 9748 9739 9731 9726 9722 9720 9718 9718 9718 9717 9714 9710 9708 9705 9701 9696 9692 9689 9687 9687 9686 9686 9686 9686
9933 9925 9918 9914 9910 9905 9901 9897 9891 9884 9879 9875 9870 9865 9861 9856 9850 9847 9844 9837 9828 9822 9817 9810 9803 9797 9793 9791 9790 9787 9782 9778 9775 9773 9770 9766 9762 9756 9750 9743 9735 9726 9719 9713 9708 9705 9704 9704 9704 9702 9699 9697 9695 9691 9686 9682 9679 9675 9674 9674 9674 9674 9674
9921 9913 9906 9900 9896 9892 9889 9884 9880 9875 9869 9864 9860 9855 9851 9848 9843 9839 9837 9832 9823 9817 9811 9804 9796 9791 9787 9783 9779 9776 9772 9767 9762 9760 9757 9754 9751 9748 9743 9737 9730 9722 9715 9707 9700 9694 9691 9690 9690 9689 9687 9686 9684 9681 9676 9672 9669 9666 9663 9662 9663 9663 9662
9909 9903 9896 9889 9883 9880 9876 9872 9869 9865 9860 9855 9850 9847 9844 9840 9836 9831 9829 9825 9818 9812 9805 9796 9789 9784 9779 9773 9768 9764 9761 9755 9750 9746 9743 9739 9738 9736 9733 9728 9723 9717 9711 9703 9694 9687 9682 9679 9678 9677 9676 9675 9673 9670 9665 9662 9659 9656 9653 9651 9651 9651 9650
9898 9893 9886 9879 9872 9867 9863 9860 9858 9855 9850 9846 9842 9838 9835 9831 9826 9822 9819 9816 9810 9803 9796 9788 9781 9775 9770 9765 9759 9754 9750 9745 9739 9735 9730 9726 9724 9722 9720 9717 9713 9708 9703 9695 9686 9679 9673 9669 9668 9668 9666 9664 9663 9659 9655 9652 9649 9645 9643 9641 9640 9639 9640
9888 9883 9877 9869 9863 9856 9850 9846 9846 9844 9840 9836 9832 9828 9823 9819 9814 9811 9808 9804 9799 9792 9785 9779 9773 9767 9762 9756 9752 9746 9741 9736 9730 9725 9719 9714 9711 9710 9708 9705 9702 9698 9692 9686 9678 9670 9663 9658 9657 9658 9656 9653 9652 9649 9645 9641 9638 9635 9633 9632 9629 9628 9629
9878 9874 9868 9861 9855 9849 9841 9835 9835 9835 9832 9828 9822 9817 9813 9808 9804 9800 9797 9792 9788 9782 9775 9769 9765 9759 9753 9748 9743 9738 9734 9729 9723 9717 9711 9705 9701 9698 9695 9693 9691 9687 9682 9675 9668 9661 9654 9648 9646 9646 9646 9643 9641 9639 9636 9631 9627 9623 9623 9622 9620 9618 9619
9870 9866 9860 9853 9847 9842 9834 9828 9827 9826 9824 9820 9814 9809 9805 9800 9795 9792 9788 9783 9779 9773 9767 9762 9756 9750 9744 9738 9732 9727 9722 9717 9713 9708 9702 9697 9692 9687 9684 9681 9678 9676 9671 9665 9658 9651 9645 9639 9635 9634 9634 9633 9630 9627 9626 9622 9616 9612 9611 9611 9610 9608 9609
9861 9857 9852 9845 9840 9835 9828 9821 9820 9819 9815 9812 9808 9803 9799 9794 9789 9786 9782 9778 9773 9767 9761 9755 9750 9743 9738 9732 9724 9717 9711 9704 9699 9694 9689 9685 9681 9676 9673 9670 9667 9663 9659 9655 9649 9643 9637 9631 9626 9622 9622 9621 9618 9616 9615 9612 9606 9602 9600 9599 9599 9598 9598
9851 9848 9844 9838 9833 9830 9826 9820 9815 9811 9808 9805 9801 9797 9793 9788 9784 9781 9778 9773 9768 9762 9755 9749 9743 9736 9731 9726 9719 9713 9705 9698 9691 9685 9679 9674 9669 9665 9662 9659 9656 9652 9647 9643 9639 9634 9628 9623 9617 9612 9610 9609 9607 9604 9603 9601 9597 9592 9589 9588 9587 9588 9588
9845 9840 9836 9832 9826 9823 9822 9820 9815 9810 9805 9801 9796 9790 9785 9780 9776 9773 9770 9766 9760 9754 9748 9743 9736 9730 9724 9719 9713 9706 9699 9692 9685 9679 9672 9666 9661 9656 9651 9648 9645 9641 9636 9632 9628 9624 9619 9614 9608 9602 9598 9597 9595 9593 9592 9590 9587 9583 9579 9577 9576 9576 9577
9840 9835 9831 9828 9823 9818 9815 9814 9812 9808 9803 9797 9791 9784 9778 9772 9768 9765 9761 9756 9751 9745 9739 9734 9728 9721 9715 9710 9704 9698 9690 9683 9678 9672 9665 9659 9653 9647 9643 9638 9634 9630 9625 9621 9617 9613 9609 9604 9599 9593 9588 9585 9583 9581 9580 9579 9577 9573 9570 9567 9565 9565 9566
9833 9830 9826 9824 9821 9817 9813 9808 9805 9801 9796 9791 9785 9778 9772 9765 9760 9757 9753 9748 9742 9736 9730 9724 9718 9711 9705 9700 9694 9688 9681 9674 9668 9662 9657 9650 9644 9639 9634 9629 9624 9619 9614 9610 9606 9602 9598 9594 9589 9583 9578 9575 9572 9570 9568 9568 9566 9563 9560 9557 9555 9554 9554
9828 9825 9821 9818 9814 9811 9807 9802 9797 9792 9788 9783 9778 9773 9767 9760 9753 9748 9744 9739 9733 9727 9721 9715 9709 9702 9696 9690 9684 9678 9671 9664 9658 9653 9647 9641 9635 9629 9624 9619 9614 9610 9605 9599 9595 9591 9587 9583 9578 9574 9569 9564 9561 9559 9557 9556 9555 9553 9550 9547 9545 9544 9544
9819 9817 9814 9810 9805 9801 9797 9793 9788 9784 9779 9775 9771 9766 9760 9754 9747 9740 9734 9729 9724 9718 9712 9706 9699 9692 9686 9681 9674 9668 9661 9654 9648 9643 9637 9631 9625 9620 9614 9609 9604 9599 9595 9590 9585 9581 9576 9572 9568 9564 9559 9554 9551 9549 9547 9546 9544 9542 9540 9538 9536 9534 9534
9805 9803 9801 9798 9794 9790 9787 9783 9778 9774 9770 9766 9762 9757 9752 9746 9741 9734 9726 9720 9714 9708 9702 9696 9690 9683 9676 9670 9664 9658 9651 9644 9638 9632 9627 9621 9615 9610 9605 9600 9594 9589 9584 9580 9575 9571 9566 9562 9557 9554 9549 9545 9541 9539 9537 9535 9534 9532 9530 9529 9527 9525 9524
9799 9795 9792 9789 9785 9781 9777 9773 9770 9765 9761 9758 9754 9750 9745 9740 9734 9728 9721 9713 9707 9700 9693 9687 9681 9675 9668 9661 9654 9648 9641 9635 9629 9623 9617 9611 9605 9600 9595 9590 9584 9579 9573 9569 9565 9560 9556 9552 9548 9544 9540 9536 9532 9530 9528 9525 9523 9522 9521 9519 9517 9516 9514